Location: NJAA Observatory
(40.6819°N, 74.8979°W)
Time: 12:16:03
(UTC-04:00)

Courier 1B - All Passes

Search period start: 01 October 2014 00:00
Search period end: 11 October 2014 00:00
Orbit: 963 x 1209 km, 28.3° (Epoch: 30 September)

Date Brightness Start Highest point End Pass type
(mag) Time Alt. Az. Time Alt. Az. Time Alt. Az.
01 Oct - 01:21:14 10° SW 01:24:19 14° SSW 01:27:28 10° S night (unlit)
01 Oct - 18:48:25 10° S 18:51:34 14° SSE 18:54:41 10° SE daylight
01 Oct - 20:39:30 10° SW 20:44:36 25° S 20:49:42 10° ESE visible
01 Oct - 22:32:33 10° WSW 22:37:46 26° S 22:43:03 10° SE visible
02 Oct - 00:26:57 10° WSW 00:30:52 17° SSW 00:34:51 10° SSE night (unlit)
02 Oct - 17:56:39 10° SSE 17:58:08 11° SSE 17:59:36 10° SE daylight
02 Oct - 19:46:13 10° SW 19:51:08 23° SSE 19:55:59 10° ESE visible
02 Oct - 21:38:59 10° WSW 21:44:17 27° S 21:49:36 10° SE visible
02 Oct - 23:32:58 10° WSW 23:37:24 20° SSW 23:41:55 10° SSE night (unlit)
03 Oct - 18:53:02 10° SSW 18:57:40 20° SSE 19:02:12 10° ESE daylight
03 Oct - 20:45:27 10° SW 20:50:48 27° S 20:56:06 10° ESE visible
03 Oct - 22:39:08 10° WSW 22:43:57 22° SSW 22:48:48 10° SE visible
04 Oct - 00:35:55 10° SW 00:36:55 10° SSW 00:37:56 10° SSW night (unlit)
04 Oct - 18:00:02 10° SSW 18:04:12 17° SSE 18:08:15 10° ESE daylight
04 Oct - 19:51:57 10° SW 19:57:19 26° S 20:02:34 10° ESE visible
04 Oct - 21:45:23 10° WSW 21:50:29 25° S 21:55:34 10° SE visible
04 Oct - 23:40:31 10° SW 23:43:30 14° SSW 23:46:30 10° S night (unlit)
05 Oct - 17:07:19 10° S 17:10:43 14° SSE 17:14:02 10° SE daylight
05 Oct - 18:58:30 10° SW 19:03:49 25° S 19:08:59 10° ESE visible
05 Oct - 20:51:41 10° WSW 20:57:01 26° S 21:02:15 10° SE visible
05 Oct - 22:46:09 10° WSW 22:50:04 17° SSW 22:53:59 10° SSE visible
06 Oct - 16:15:18 10° S 16:17:13 11° SSE 16:19:07 10° SE daylight
06 Oct - 18:05:07 10° SW 18:10:19 23° SSE 18:15:20 10° ESE daylight
06 Oct - 19:58:01 10° WSW 20:03:31 28° S 20:08:53 10° SE visible
06 Oct - 21:52:06 10° WSW 21:56:38 20° SSW 22:01:08 10° SSE visible
07 Oct - 17:11:51 10° SSW 17:16:48 21° SSE 17:21:34 10° ESE daylight
07 Oct - 19:04:22 10° SW 19:10:01 28° S 19:15:27 10° ESE visible
07 Oct - 20:58:10 10° WSW 21:03:11 23° SSW 21:08:06 10° SE visible
07 Oct - 22:54:42 10° SW 22:56:07 11° SSW 22:57:32 10° SSW visible
08 Oct - 16:18:45 10° SSW 16:23:16 18° SSE 16:27:38 10° ESE daylight
08 Oct - 18:10:46 10° SW 18:16:29 27° S 18:21:57 10° ESE daylight
08 Oct - 20:04:20 10° WSW 20:09:42 26° S 20:14:55 10° SE visible
08 Oct - 21:59:28 10° SW 22:02:43 14° SSW 22:05:56 10° S visible
09 Oct - 15:25:57 10° S 15:29:44 15° SSE 15:33:25 10° SE daylight
09 Oct - 17:17:14 10° SW 17:22:56 26° S 17:28:23 10° ESE daylight
09 Oct - 19:10:32 10° WSW 19:16:12 28° S 19:21:39 10° SE visible
09 Oct - 21:05:04 10° WSW 21:09:17 18° SSW 21:13:26 10° SSE visible
10 Oct - 14:33:47 10° S 14:36:11 12° SSE 14:38:34 10° SE daylight
10 Oct - 16:23:47 10° SW 16:29:22 24° SSE 16:34:43 10° ESE daylight
10 Oct - 18:16:46 10° WSW 18:22:40 29° S 18:28:18 10° SE daylight
10 Oct - 20:10:56 10° WSW 20:15:50 21° SSW 20:20:36 10° SSE visible
